Flag for China Weather past 2 weeks in Nanjing, China

Now
57 °F

Fog.


Feels Like: 56 °F
Forecast: 53 / 62 °F
Wind: 6 mph from Northeast

Location: Nanjing


UV Index: 7 (High)

Visibility: 2 mi


Pressure: 30.07 "Hg

Humidity: 94%

Dew point: 55 °F

Location of NanjingLocation

Historic Weather in Nanjing

°F

Nanjing temperature yesterday

Maximum temperature yesterday: 59 °F (at 12:00 AM)
Minimum temperature yesterday: 55 °F (at 1:00 AM)
Average temperature yesterday: 57 °F

Past Weeks' High & Low Weather Summary

 TemperatureHumidityPressure
High82 °F (Apr 10, 1:00 PM)100% (Apr 9, 12:00 AM)30.30 "Hg (Apr 9, 12:00 AM)
Low41 °F (Apr 6, 4:00 AM)21% (Apr 6, 1:00 PM)29.74 "Hg (Apr 17, 5:00 AM)
Average61 °F75%30.00 "Hg
* Reported Apr 4 11:00 PM — Apr 19 11:00 PM, Nanjing, Weather by CustomWeather, © 2014

Note: Actual official high and low records may vary slightly from our data, if they occured in-between our weather recording intervals... More about our weather records

Advertising

Historic Weather Conditions — Data for Previous 24 hours

 ConditionsComfort  
Time TempWeatherWind HumidityBarometerVisibility
11:00 PM
Apr 19
57 °FFog.6 mph94%30.07 "Hg2 mi
10:00 PM57 °FLight rain. Fog.8 mph100%30.04 "Hg2 mi
9:00 PM57 °FLight rain. Fog.6 mph100%30.07 "Hg2 mi
8:00 PM57 °FLight rain. Fog.6 mph100%30.04 "Hg1 mi
7:00 PM57 °FLight rain. Fog.6 mph100%30.01 "Hg1 mi
6:00 PM57 °FLight rain. Fog.6 mph100%30.01 "Hg1 mi
5:00 PM57 °FLight rain. Fog.3 mph100%29.98 "Hg1 mi
4:00 PM57 °FLight rain. Fog.6 mph100%29.95 "Hg1 mi
3:00 PM57 °FLight rain. Fog.6 mph94%29.98 "Hg1 mi
2:00 PM57 °FLight rain. Fog.3 mph94%29.98 "Hg2 mi
1:00 PM59 °FMostly cloudy.6 mph88%29.98 "Hg5 mi
12:00 PM57 °FMostly cloudy.8 mph94%29.98 "Hg4 mi
11:00 AM57 °FFog.8 mph94%29.98 "Hg2 mi
10:00 AM57 °FLight rain. Fog.8 mph94%29.98 "Hg1 mi
9:00 AM57 °FLight rain. Fog.8 mph94%29.98 "Hg1 mi
8:00 AM57 °FFog.6 mph94%29.98 "Hg2 mi
7:00 AM55 °FFog.6 mph94%29.95 "Hg2 mi
6:00 AM55 °FLight rain. Fog.6 mph94%29.92 "Hg3 mi
5:00 AM55 °FPassing clouds.10 mph94%29.92 "Hg4 mi
4:00 AM55 °FLight rain. Fog.13 mph94%29.89 "Hg2 mi
3:00 AM55 °FThunderstorms. Fog.22 mph94%29.89 "Hg1 mi
2:00 AM55 °FLight rain. Fog.13 mph94%29.92 "Hg1 mi
1:00 AM55 °FLight rain. Fog.26 mph88%29.92 "Hg2 mi
12:00 AM59 °FFog.8 mph77%29.95 "Hg2 mi
Weather by CustomWeather, © 2014

See weather overview